Погода в Пажге

Россия / Республика Коми     61°23′27″N   50°34′35″E
темп.,
°C
ветер,
м/с
пор.,
м/с
влажн.,
%
обл.,
%
осадки,
мм/ч
давл.,
гПа
погр.,
м
8 августа, пн
пн800:00+20ю387296 0.0 1016160
03:00+17ююз278861 0.0 1017151
06:00+18зсз358825 0.1 1018359
09:00+22зсз356346 0.1 10191043
12:00+24зсз34475 0.0 10201392
15:00+25зсз344311 0.0 10201707
18:00+21зсз355320 0.0 1021426
21:00+16ссз276549 0.0 1022157
9 августа, вт
вт900:00+14с22685 0.0 102226
03:00+12с237269 0.0 102359
06:00+15ссв2463100 0.0 1024157
09:00+19св2348100 0.0 1024641
12:00+21св2342100 0.0 10241252
15:00+19ююв2252100 0.0 1023619
18:00+18всв0159100 0.0 102215
21:00+15ссв226694 0.0 102230
10 августа, ср
ср1000:00+15св2863100 0.0 1022211
03:00+14ссв2668100 0.1 1021162
06:00+11св3895100 2.2 1021213
09:00+12всв41293100 3.9 1020441
12:00+12св41097100 4.2 1020508
15:00+12св41096100 8.9 1018491
18:00+12св41097100 4.0 1017454
21:00+11ссв3898100 4.1 1017498
11 августа, чт
чт1100:00+11с3798100 0.1 1016430
03:00+11с3898100 0.2 1016458
06:00+11ссз3998100 1.3 1017407
09:00+13ссз369076 1.4 1017449
12:00+16сз36636 0.0 1017538
15:00+19зсз384899 0.0 1016633
18:00+18з245999 0.0 101597
21:00+15з3970100 0.0 1015312
12 августа, пт
пт1200:00+14зюз3992100 0.1 1015381
03:00+13зюз31097100 0.4 1014373
06:00+14зюз41198100 1.0 1013561
09:00+16з499590 1.5 1012624
12:00+17зсз4987100 0.5 10121029
15:00+20зсз5863100 0.6 10111378
18:00+17зсз4108479 0.7 1012911
21:00+13з312975 0.9 1012352